Weather History for West Plains, MO

Change the Weather History Date:

Thursday, July 4, 2013

  Actual Average Record
Temperature  
Mean Temperature 69 °F 77 °F  
Max Temperature 83 °F 88 °F 101 °F (2012)
Min Temperature 55 °F 67 °F 48 °F (1968)
Degree Days  
Heating Degree Days 0 0  
Month to date heating degree days 0 0  
Since 1 June heating degree days 9 5  
Since 1 July heating degree days 0 0  
Cooling Degree Days 4 12  
Month to date cooling degree days 13 48  
Year to date cooling degree days 273 436  
Since 1 June cooling degree days 161 314  
Growing Degree Days 18 (Base 50)    
Moisture  
Dew Point 56 °F    
Average Humidity 67    
Maximum Humidity 93    
Minimum Humidity 40    
Precipitation  
Precipitation 0.00 in 0.12 in 1.29 in (1987)
Month to date precipitation 0.00 0.42  
Year to date precipitation 25.49 23.71  
Sea Level Pressure  
Sea Level Pressure 30.05 in    
Wind  
Wind Speed 2 mph (ENE)    
Max Wind Speed 12 mph    
Max Gust Speed 15 mph    
Visibility 10 miles    
Events      
T = Trace of Precipitation, MM = Missing Value Source: NWS Daily Summary

Daily Weather History Graph

Daily Weather History Graph

Search for Another Location

Airport:

Trip Planner

Search our weather history database for the weather conditions in past years. The results will help you decide how hot, cold, wet, or windy it might be!

Date:

Astronomy

Jul. 04, 2013 Rise Set
Actual Time 5:53 AM CDT 8:30 PM CDT
Civil Twilight 5:23 AM CDT 9:00 PM CDT
Nautical Twilight 4:45 AM CDT 9:38 PM CDT
Astronomical Twilight 4:02 AM CDT 10:21 PM CDT
Moon 3:08 AM CDT (7/4) 5:36 PM CDT (7/4)
Length of Visible Light 15h 37m
Length of Day
14h 36m
Waning Crescent, 11% of the Moon is Illuminated
Jul 4
Waning Crescent
Jul 8
New
Jul 15
First Quarter
Jul 22
Full
Jul 29
Last Quarter

Hourly Weather History & Observations

Time (CDT) Temp. Heat Index Dew Point Humidity Pressure Visibility Wind Dir Wind Speed Gust Speed Precip Events Conditions
12:53 AM 61.0 °F - 55.9 °F 83% 30.07 in 10.0 mi Calm Calm - N/A   Clear
1:53 AM 59.0 °F - 55.9 °F 90% 30.06 in 10.0 mi Calm Calm - N/A   Clear
2:53 AM 57.9 °F - 55.0 °F 90% 30.06 in 10.0 mi Calm Calm - N/A   Clear
3:53 AM 57.0 °F - 55.0 °F 93% 30.06 in 10.0 mi Calm Calm - N/A   Clear
4:53 AM 57.9 °F - 55.0 °F 90% 30.06 in 10.0 mi Calm Calm - N/A   Clear
5:53 AM 55.9 °F - 54.0 °F 93% 30.07 in 10.0 mi Calm Calm - N/A   Clear
6:53 AM 59.0 °F - 57.0 °F 93% 30.07 in 10.0 mi Calm Calm - N/A   Clear
7:53 AM 68.0 °F - 60.1 °F 76% 30.07 in 10.0 mi Calm Calm - N/A   Clear
8:53 AM 73.0 °F - 55.0 °F 53% 30.09 in 10.0 mi WSW 4.6 mph - N/A   Clear
9:53 AM 75.9 °F - 55.0 °F 48% 30.08 in 10.0 mi Calm Calm - N/A   Clear
10:53 AM 78.1 °F - 53.1 °F 42% 30.08 in 10.0 mi Calm Calm - N/A   Clear
11:53 AM 81.0 °F 80.7 °F 55.0 °F 41% 30.08 in 10.0 mi North 3.5 mph - N/A   Clear
12:53 PM 82.0 °F 81.6 °F 55.9 °F 41% 30.07 in 10.0 mi North 5.8 mph - N/A   Clear
1:53 PM 82.0 °F 81.6 °F 55.9 °F 41% 30.05 in 10.0 mi Calm Calm - N/A   Partly Cloudy
2:53 PM 82.0 °F 81.4 °F 55.0 °F 39% 30.04 in 10.0 mi Calm Calm - N/A   Partly Cloudy
3:53 PM 82.9 °F 82.1 °F 55.9 °F 39% 30.02 in 10.0 mi Variable 3.5 mph - N/A   Scattered Clouds
4:53 PM 82.0 °F 81.4 °F 55.0 °F 39% 30.01 in 10.0 mi ESE 5.8 mph - N/A   Clear
5:53 PM 82.0 °F 81.4 °F 55.0 °F 39% 30.00 in 10.0 mi East 6.9 mph - N/A   Clear
6:53 PM 80.1 °F 80.1 °F 55.0 °F 42% 30.00 in 10.0 mi ESE 5.8 mph - N/A   Clear
7:53 PM 77.0 °F - 55.9 °F 48% 30.01 in 10.0 mi Calm Calm - N/A   Clear
8:53 PM 66.9 °F - 59.0 °F 76% 30.02 in 10.0 mi Calm Calm - N/A   Clear
9:53 PM 66.9 °F - 60.1 °F 79% 30.03 in 10.0 mi Calm Calm - N/A   Clear
10:53 PM 64.0 °F - 59.0 °F 84% 30.04 in 10.0 mi Calm Calm - N/A   Clear
11:53 PM 62.1 °F - 57.9 °F 86% 30.03 in 10.0 mi Calm Calm - N/A   Clear